User: anonymous   Login
Location: Spangle
(47.4302°N, 117.3779°W)
Time: 22:24:27
(UTC+00:00)
Language:

ACS3 Solar Sail - Orbit

View from above orbital plane
View from above orbital plane
View from above satellite
View from above satellite

Ground track
Ground track

The orbit is defined by the following mean orbital elements,

1 59588U          26138.54807567 +.00000000 +00000-0 +52508-3 0 00003
2 59588  97.1736  63.9710 0024658 359.2841   0.8285 13.92684198    07
Epoch (UTC): 18 May 2026 13:09:13
Eccentricity: 0.0024658
inclination: 97.1736°
perigee height: 901 km
apogee height: 937 km
right ascension of ascending node: 63.9710°
argument of perigee: 359.2841°
revolutions per day: 13.92684198
mean anomaly at epoch: 0.8285°

The dashed part of the orbit path shows where the satellite is in the earth's shadow,  

DLR